Weather History for Lima, OH

Change the Weather History Date:

Saturday, December 21, 2013

  Actual Average (KFDY) Record (KFDY)
Temperature  
Mean Temperature 46 °F -  
Max Temperature 57 °F 33 °F 64 °F (1967)
Min Temperature 35 °F 21 °F -14 °F (1989)
Degree Days  
Heating Degree Days 19    
Moisture  
Dew Point 42 °F    
Average Humidity 91    
Maximum Humidity 100    
Minimum Humidity 86    
Precipitation  
Precipitation 2.56 in - - ()
Sea Level Pressure  
Sea Level Pressure 29.71 in    
Wind  
Wind Speed 11 mph (NNE)    
Max Wind Speed 22 mph    
Max Gust Speed 39 mph    
Visibility 5 miles    
Events Rain    
Averages and records for this station are not official NWS values.
T = Trace of Precipitation, MM = Missing Value Source: NWS Daily Summary

Daily Weather History Graph

Daily Weather History Graph

Search for Another Location

Airport:

Trip Planner

Search our weather history database for the weather conditions in past years. The results will help you decide how hot, cold, wet, or windy it might be!

Date:

Astronomy

Dec. 21, 2013 Rise Set
Actual Time 7:56 AM EST 5:12 PM EST
Civil Twilight 7:25 AM EST 5:43 PM EST
Nautical Twilight 6:51 AM EST 6:17 PM EST
Astronomical Twilight 6:17 AM EST 6:50 PM EST
Moon 9:28 PM EST (12/21) 10:21 AM EST (12/21)
Length of Visible Light 10h 17m
Length of Day
9h 15m
Waning Gibbous, 84% of the Moon is Illuminated
Dec 21
Waning Gibbous
Dec 25
Last Quarter
Jan 1
New
Jan 7
First Quarter
Jan 15
Full

Hourly Weather History & Observations

Time (EST) Temp. Windchill Dew Point Humidity Pressure Visibility Wind Dir Wind Speed Gust Speed Precip Events Conditions
12:03 AM 57.2 °F - 53.6 °F 88% 29.75 in 6.0 mi South 11.5 mph 18.4 mph 0.00 in Rain Light Rain
12:53 AM 57.9 °F - 54.0 °F 87% 29.75 in 7.0 mi SSW 13.8 mph - 0.02 in Rain Light Rain
1:53 AM 57.9 °F - 54.0 °F 87% 29.75 in 10.0 mi SW 18.4 mph 25.3 mph 0.05 in   Overcast
2:12 AM 57.2 °F - 53.6 °F 88% 29.76 in 10.0 mi SW 16.1 mph 23.0 mph N/A   Overcast
2:53 AM 55.9 °F - 52.0 °F 87% 29.76 in 9.0 mi WSW 10.4 mph - 0.00 in   Overcast
3:03 AM 55.4 °F - 51.8 °F 88% 29.76 in 6.0 mi SW 10.4 mph - 0.01 in Rain Light Rain
3:39 AM 53.6 °F - 50.0 °F 88% 29.77 in 4.0 mi WSW 11.5 mph - 0.11 in Rain Rain
3:53 AM 54.0 °F - 51.1 °F 90% 29.77 in 6.0 mi SW 6.9 mph - 0.12 in Rain Light Rain
4:53 AM 53.1 °F - 50.0 °F 89% 29.76 in 5.0 mi SW 5.8 mph - 0.06 in Rain Light Rain
5:15 AM 53.6 °F - 50.0 °F 88% 29.75 in 4.0 mi South 4.6 mph - 0.02 in Rain Light Rain
5:26 AM 53.6 °F - 50.0 °F 88% 29.76 in 4.0 mi SW 8.1 mph - 0.02 in Rain Light Rain
5:53 AM 52.0 °F - 48.9 °F 89% 29.76 in 5.0 mi SW 6.9 mph - 0.04 in Rain Light Rain
6:22 AM 51.8 °F - 48.2 °F 88% 29.77 in 5.0 mi West 6.9 mph - 0.02 in Rain Light Rain
6:53 AM 50.0 °F - 48.0 °F 93% 29.77 in 4.0 mi NNW 9.2 mph - 0.06 in Rain Light Rain
7:13 AM 46.4 °F 45.2 °F 44.6 °F 93% 29.77 in 3.0 mi NNW 3.5 mph - 0.03 in Rain Light Rain
7:53 AM 46.9 °F - 44.1 °F 90% 29.77 in 3.0 mi NNW 4.6 mph - 0.10 in Rain Rain
8:00 AM 46.4 °F 44.3 °F 44.6 °F 93% 29.76 in 3.0 mi NNW 4.6 mph - 0.02 in Rain Rain
8:24 AM 44.6 °F 40.7 °F 42.8 °F 93% 29.77 in 2.5 mi NNW 6.9 mph - 0.06 in Rain Rain
8:39 AM 44.6 °F 39.7 °F 42.8 °F 93% 29.77 in 3.0 mi NNW 9.2 mph - 0.08 in Rain Light Rain
8:53 AM 44.1 °F 39.0 °F 41.0 °F 89% 29.79 in 2.5 mi NNW 9.2 mph - 0.10 in Rain Rain
9:00 AM 44.6 °F 40.7 °F 41.0 °F 87% 29.78 in 3.0 mi NNW 6.9 mph - 0.01 in Rain Light Rain
9:25 AM 42.8 °F 38.0 °F 39.2 °F 87% 29.80 in 3.0 mi NNW 8.1 mph - 0.05 in Rain Rain
9:33 AM 42.8 °F 39.3 °F 39.2 °F 87% 29.81 in 2.5 mi NNW 5.8 mph - 0.07 in Rain Rain
9:48 AM 42.8 °F 39.3 °F 39.2 °F 87% 29.81 in 2.5 mi NNW 5.8 mph - 0.11 in Rain Rain
9:53 AM 42.1 °F 37.7 °F 39.9 °F 92% 29.82 in 2.5 mi NNW 6.9 mph - 0.13 in Rain Rain
10:02 AM 42.8 °F 37.0 °F 39.2 °F 87% 29.82 in 3.0 mi North 10.4 mph - 0.02 in Rain Rain
10:53 AM 41.0 °F 35.8 °F 39.0 °F 93% 29.81 in 4.0 mi NNE 8.1 mph - 0.13 in Rain Rain
11:53 AM 42.1 °F 37.7 °F 39.0 °F 89% 29.78 in 5.0 mi ENE 6.9 mph - 0.05 in Rain Light Rain
12:21 PM 42.8 °F 37.0 °F 39.2 °F 87% 29.74 in 7.0 mi East 10.4 mph - 0.02 in Rain Light Rain
12:40 PM 42.8 °F 38.0 °F 39.2 °F 87% 29.74 in 10.0 mi East 8.1 mph - 0.03 in Rain Light Rain
12:53 PM 43.0 °F 37.2 °F 39.9 °F 89% 29.73 in 10.0 mi East 10.4 mph - 0.03 in Rain Light Rain
1:53 PM 44.1 °F 41.5 °F 41.0 °F 89% 29.72 in 9.0 mi East 4.6 mph - 0.02 in Rain Light Rain
2:53 PM 43.0 °F 38.8 °F 39.9 °F 89% 29.72 in 4.0 mi North 6.9 mph - 0.08 in Rain Rain
3:53 PM 43.0 °F 37.2 °F 39.9 °F 89% 29.72 in 4.0 mi North 10.4 mph - 0.07 in Rain Light Rain
4:53 PM 39.9 °F 32.1 °F 37.0 °F 89% 29.74 in 4.0 mi North 13.8 mph - 0.07 in Rain Light Rain
5:53 PM 39.0 °F 31.8 °F 36.0 °F 89% 29.74 in 6.0 mi NE 11.5 mph - 0.10 in Rain Rain
6:34 PM 37.4 °F 29.8 °F 35.6 °F 93% 29.72 in 9.0 mi East 11.5 mph - 0.03 in Rain Light Rain
6:42 PM 37.4 °F 29.3 °F 35.6 °F 93% 29.71 in 8.0 mi East 12.7 mph - 0.05 in Rain Rain
6:49 PM 37.4 °F 28.9 °F 35.6 °F 93% 29.69 in 8.0 mi East 13.8 mph - 0.06 in Rain Rain
6:53 PM 37.9 °F 30.0 °F 35.1 °F 89% 29.70 in 8.0 mi ENE 12.7 mph - 0.06 in Rain Light Rain
7:21 PM 37.4 °F 28.5 °F 35.6 °F 93% 29.68 in 10.0 mi East 15.0 mph 20.7 mph 0.01 in Rain Light Rain
7:33 PM 37.4 °F 28.9 °F 35.6 °F 93% 29.68 in 5.0 mi East 13.8 mph - 0.05 in Rain Rain
7:53 PM 37.9 °F 30.5 °F 35.1 °F 89% 29.68 in 5.0 mi ENE 11.5 mph - 0.10 in Rain Rain
8:03 PM 37.4 °F 29.3 °F 35.6 °F 93% 29.65 in 5.0 mi ENE 12.7 mph - 0.04 in Rain Heavy Rain
8:17 PM 37.4 °F 28.5 °F 35.6 °F 93% 29.65 in 2.5 mi East 15.0 mph - 0.20 in Rain Heavy Rain
8:22 PM 37.4 °F 30.3 °F 35.6 °F 93% 29.65 in 2.0 mi East 10.4 mph - 0.27 in Rain Heavy Rain
8:32 PM 37.4 °F 30.3 °F 35.6 °F 93% 29.64 in 3.0 mi East 10.4 mph - 0.36 in Rain Heavy Rain
8:53 PM 37.9 °F 28.9 °F 35.1 °F 89% 29.62 in 3.0 mi ENE 16.1 mph - 0.50 in Rain Heavy Rain
9:00 PM 37.4 °F 29.3 °F 35.6 °F 93% 29.60 in 4.0 mi NNE 12.7 mph - 0.03 in Rain Heavy Rain
9:07 PM 37.4 °F 28.2 °F 35.6 °F 93% 29.58 in 5.0 mi ENE 16.1 mph - 0.06 in Rain Rain
9:53 PM 39.0 °F 31.8 °F 35.1 °F 86% 29.57 in 8.0 mi North 11.5 mph 23.0 mph 0.20 in Rain Light Rain
10:25 PM 35.6 °F 24.5 °F 35.6 °F 100% 29.58 in 2.0 mi North 20.7 mph 39.1 mph 0.25 in Rain Heavy Rain
10:32 PM 37.4 °F 26.6 °F 37.4 °F 100% 29.54 in 3.0 mi ENE 21.9 mph 31.1 mph 0.29 in Rain Heavy Rain
10:43 PM 37.4 °F 28.2 °F 37.4 °F 100% 29.52 in 8.0 mi ENE 16.1 mph 24.2 mph 0.31 in Rain Rain
10:53 PM 37.9 °F 29.2 °F 37.9 °F 100% 29.54 in 6.0 mi NNE 15.0 mph - 0.35 in Rain Heavy Rain
11:13 PM 37.4 °F 28.9 °F - N/A% 29.53 in 8.0 mi NNE 13.8 mph - 0.06 in Rain Rain
11:24 PM 37.4 °F 29.3 °F - N/A% 29.55 in 9.0 mi NNE 12.7 mph - 0.07 in Rain Rain
11:53 PM 37.0 °F 28.9 °F - N/A% 29.57 in 9.0 mi NE 12.7 mph - 0.12 in Rain Rain